When you browse on this site, cookies collect data to enhance your experience and personalize the content and advertising you see.
Visit our Privacy Policy to learn more. By continuing to use the site, you agree to this use of cookies and data.

Hourly Weather Jouy-le-Moutier

Today, 9 August, Sunday

Time Temperature Precipitation Wind Pressure Humidity
00:00 +27°C° 0 mm 2 mps 755 mmHg 51%
01:00 +26°C° 0.3 mm 2 mps 755 mmHg 53%
02:00 +26°C° 0.3 mm 1 mps 755 mmHg 56%
03:00 +25°C° 0.3 mm 1 mps 755 mmHg 59%
04:00 +26°C° 0.1 mm 1 mps 755 mmHg 59%
05:00 +26°C° 0.1 mm 1 mps 755 mmHg 59%
06:00 +26°C° 0.1 mm 1 mps 755 mmHg 60%
07:00 +28°C° 0.1 mm 1 mps 755 mmHg 54%
08:00 +30°C° 0.1 mm 2 mps 755 mmHg 49%
09:00 +32°C° 0.1 mm 2 mps 755 mmHg 44%
10:00 +34°C° 0 mm 2 mps 755 mmHg 40%
11:00 +36°C° 0 mm 2 mps 754 mmHg 36%
12:00 +37°C° 0 mm 2 mps 754 mmHg 31%
13:00 +38°C° 0 mm 2 mps 754 mmHg 30%
14:00 +39°C° 0 mm 2 mps 754 mmHg 29%
15:00 +39°C° 0 mm 2 mps 753 mmHg 27%
16:00 +37°C° 0 mm 1 mps 753 mmHg 29%
17:00 +36°C° 0 mm 1 mps 753 mmHg 31%
18:00 +36°C° 0 mm 1 mps 752 mmHg 33%
19:00 +35°C° 0.2 mm 2 mps 753 mmHg 37%
20:00 +32°C° 0.2 mm 2 mps 753 mmHg 42%
21:00 +31°C° 0.2 mm 2 mps 753 mmHg 46%
22:00 +29°C° 0.4 mm 3 mps 753 mmHg 54%
23:00 +28°C° 0.4 mm 3 mps 753 mmHg 61%

Tomorrow, 10 August, Monday

Time Temperature Precipitation Wind Pressure Humidity
00:00 +26°C° 0.4 mm 4 mps 753 mmHg 68%
01:00 +25°C° 0 mm 3 mps 753 mmHg 71%
02:00 +25°C° 0 mm 2 mps 753 mmHg 73%
03:00 +24°C° 0 mm 1 mps 752 mmHg 76%
04:00 +25°C° 0 mm 1 mps 752 mmHg 75%
05:00 +25°C° 0 mm 2 mps 753 mmHg 74%
06:00 +25°C° 0 mm 2 mps 753 mmHg 74%
07:00 +27°C° 0 mm 2 mps 753 mmHg 66%
08:00 +28°C° 0 mm 2 mps 753 mmHg 59%
09:00 +30°C° 0 mm 1 mps 753 mmHg 51%
10:00 +32°C° 0 mm 1 mps 753 mmHg 46%
11:00 +34°C° 0 mm 1 mps 753 mmHg 41%
12:00 +35°C° 0 mm 1 mps 753 mmHg 35%
13:00 +36°C° 0 mm 1 mps 753 mmHg 33%
14:00 +36°C° 0 mm 1 mps 753 mmHg 32%
15:00 +37°C° 0 mm 1 mps 752 mmHg 30%
16:00 +36°C° 0 mm 1 mps 752 mmHg 32%
17:00 +36°C° 0 mm 2 mps 752 mmHg 34%
18:00 +36°C° 0 mm 2 mps 752 mmHg 36%
19:00 +34°C° 0.1 mm 2 mps 752 mmHg 40%
20:00 +32°C° 0.1 mm 2 mps 752 mmHg 43%
21:00 +30°C° 0.1 mm 2 mps 753 mmHg 47%
22:00 +29°C° 0 mm 2 mps 753 mmHg 49%
23:00 +28°C° 0 mm 1 mps 753 mmHg 52%

Day after tomorrow, 11 August, Tuesday

Time Temperature Precipitation Wind Pressure Humidity
00:00 +27°C° 0 mm 1 mps 753 mmHg 54%
01:00 +27°C° 0 mm 1 mps 753 mmHg 55%
02:00 +26°C° 0 mm 1 mps 753 mmHg 56%
03:00 +24°C° 0 mm 0 mps 753 mmHg 57%
04:00 +24°C° 0 mm 0 mps 753 mmHg 57%
05:00 +25°C° 0 mm 0 mps 753 mmHg 58%
06:00 +25°C° 0 mm 0 mps 753 mmHg 58%
07:00 +29°C° 0 mm 1 mps 753 mmHg 52%
08:00 +31°C° 0 mm 1 mps 753 mmHg 47%
09:00 +34°C° 0 mm 2 mps 753 mmHg 41%
10:00 +35°C° 0 mm 2 mps 753 mmHg 37%
11:00 +37°C° 0 mm 2 mps 753 mmHg 33%
12:00 +38°C° 0 mm 2 mps 753 mmHg 29%
13:00 +39°C° 0 mm 1 mps 753 mmHg 27%
14:00 +39°C° 0 mm 1 mps 753 mmHg 26%
15:00 +40°C° 0 mm 1 mps 752 mmHg 24%
16:00 +39°C° 0.1 mm 1 mps 752 mmHg 27%
17:00 +37°C° 0.1 mm 1 mps 752 mmHg 29%
18:00 +36°C° 0.1 mm 1 mps 752 mmHg 31%
19:00 +34°C° 1.2 mm 1 mps 752 mmHg 38%
20:00 +31°C° 1.2 mm 1 mps 752 mmHg 44%
21:00 +29°C° 1.2 mm 1 mps 753 mmHg 51%
22:00 +29°C° 0.5 mm 1 mps 753 mmHg 54%
23:00 +28°C° 0.5 mm 1 mps 753 mmHg 56%

12 August, Wednesday

Time Temperature Precipitation Wind Pressure Humidity
00:00 +27°C° 0.5 mm 1 mps 753 mmHg 59%
01:00 +27°C° 0 mm 1 mps 752 mmHg 60%
02:00 +27°C° 0 mm 1 mps 752 mmHg 61%
03:00 +26°C° 0 mm 1 mps 752 mmHg 62%
04:00 +26°C° 0.1 mm 1 mps 752 mmHg 64%
05:00 +26°C° 0.1 mm 1 mps 752 mmHg 66%
06:00 +26°C° 0.1 mm 1 mps 752 mmHg 68%
07:00 +28°C° 0 mm 1 mps 752 mmHg 62%
08:00 +29°C° 0 mm 1 mps 752 mmHg 56%
09:00 +31°C° 0 mm 2 mps 752 mmHg 50%
10:00 +34°C° 0 mm 2 mps 752 mmHg 45%
11:00 +35°C° 0 mm 2 mps 752 mmHg 40%
12:00 +37°C° 0 mm 2 mps 752 mmHg 35%
13:00 +37°C° 0 mm 2 mps 751 mmHg 33%
14:00 +38°C° 0 mm 2 mps 751 mmHg 31%
15:00 +38°C° 0 mm 2 mps 751 mmHg 29%
16:00 +36°C° 0 mm 2 mps 751 mmHg 35%
17:00 +35°C° 0 mm 3 mps 751 mmHg 42%
18:00 +33°C° 0 mm 4 mps 751 mmHg 48%
19:00 +29°C° 0.9 mm 3 mps 751 mmHg 58%
20:00 +27°C° 0.9 mm 3 mps 751 mmHg 69%
21:00 +24°C° 0.9 mm 3 mps 751 mmHg 80%
22:00 +24°C° 1.5 mm 2 mps 751 mmHg 82%
23:00 +24°C° 1.5 mm 2 mps 751 mmHg 84%

13 August, Thursday

Time Temperature Precipitation Wind Pressure Humidity
00:00 +23°C° 1.5 mm 2 mps 751 mmHg 86%
01:00 +23°C° 0.1 mm 2 mps 751 mmHg 87%
02:00 +23°C° 0.1 mm 2 mps 750 mmHg 88%
03:00 +23°C° 0.1 mm 2 mps 750 mmHg 89%
04:00 +23°C° 1 mm 2 mps 750 mmHg 88%
05:00 +22°C° 1 mm 3 mps 751 mmHg 87%
06:00 +22°C° 1 mm 3 mps 751 mmHg 87%
07:00 +22°C° 0 mm 4 mps 751 mmHg 84%
08:00 +22°C° 0 mm 4 mps 751 mmHg 81%
09:00 +23°C° 0 mm 5 mps 751 mmHg 78%
10:00 +23°C° 0.1 mm 5 mps 751 mmHg 73%
11:00 +25°C° 0.1 mm 4 mps 751 mmHg 68%
12:00 +26°C° 0.1 mm 4 mps 750 mmHg 64%
13:00 +26°C° 0.5 mm 4 mps 750 mmHg 63%
14:00 +26°C° 0.5 mm 5 mps 750 mmHg 61%
15:00 +27°C° 0.5 mm 5 mps 749 mmHg 60%
16:00 +26°C° 0.4 mm 4 mps 749 mmHg 62%
17:00 +26°C° 0.4 mm 4 mps 749 mmHg 64%
18:00 +26°C° 0.4 mm 3 mps 749 mmHg 66%
19:00 +23°C° 1 mm 4 mps 750 mmHg 73%
20:00 +22°C° 1 mm 4 mps 750 mmHg 80%
21:00 +20°C° 1 mm 5 mps 750 mmHg 86%
22:00 +20°C° 1.1 mm 5 mps 751 mmHg 87%
23:00 +19°C° 1.1 mm 6 mps 751 mmHg 87%

14 August, Friday

Time Temperature Precipitation Wind Pressure Humidity
00:00 +17°C° 1.1 mm 6 mps 751 mmHg 87%
01:00 +17°C° 0.1 mm 5 mps 751 mmHg 86%
02:00 +16°C° 0.1 mm 5 mps 751 mmHg 85%
03:00 +17°C° 0.1 mm 4 mps 752 mmHg 83%
04:00 +17°C° 0.2 mm 4 mps 752 mmHg 83%
05:00 +17°C° 0.2 mm 4 mps 752 mmHg 83%
06:00 +17°C° 0.2 mm 3 mps 753 mmHg 82%
07:00 +17°C° 0 mm 4 mps 753 mmHg 78%
08:00 +18°C° 0 mm 4 mps 754 mmHg 74%
09:00 +18°C° 0 mm 4 mps 754 mmHg 70%
10:00 +20°C° 0 mm 4 mps 754 mmHg 63%
11:00 +21°C° 0 mm 4 mps 754 mmHg 57%
12:00 +24°C° 0 mm 3 mps 754 mmHg 50%
13:00 +23°C° 0.1 mm 4 mps 754 mmHg 50%
14:00 +23°C° 0.1 mm 4 mps 754 mmHg 51%
15:00 +23°C° 0.1 mm 4 mps 753 mmHg 51%
16:00 +22°C° 0.1 mm 3 mps 753 mmHg 54%
17:00 +21°C° 0.1 mm 3 mps 753 mmHg 58%
18:00 +21°C° 0.1 mm 3 mps 753 mmHg 61%
19:00 +20°C° 0 mm 2 mps 754 mmHg 65%
20:00 +19°C° 0 mm 2 mps 754 mmHg 69%
21:00 +19°C° 0 mm 1 mps 754 mmHg 73%
22:00 +18°C° 0 mm 1 mps 754 mmHg 74%
23:00 +18°C° 0 mm 1 mps 753 mmHg 74%
Show more